EST,Max TemperatureF,Mean TemperatureF,Min TemperatureF,Max Dew PointF,MeanDew PointF,Min DewpointF,Max Humidity, Mean Humidity, Min Humidity, Max Sea Level PressureIn, Mean Sea Level PressureIn, Min Sea Level PressureIn, Max VisibilityMiles, Mean VisibilityMiles, Min VisibilityMiles, Max Wind SpeedMPH, Mean Wind SpeedMPH, Max Gust SpeedMPH,PrecipitationIn, CloudCover, Events, WindDirDegrees
2014-1-1,85,75,64,72,66,60,93,76,59,30.18,30.11,30.04,10,10,8,16,8,20,0.00,3,,74
2014-1-2,81,74,66,73,69,66,100,84,67,30.03,29.97,29.90,10,8,2,22,8,28,0.17,4,Rain,215
2014-1-3,70,60,49,68,47,33,97,67,36,30.21,30.08,29.94,10,10,10,21,11,31,0.00,2,,15
2014-1-4,69,59,49,67,59,45,100,90,80,30.18,30.11,30.05,10,7,2,18,8,23,0.26,6,Rain,65
2014-1-5,81,74,66,70,68,65,100,84,67,30.06,30.00,29.88,10,10,7,25,7,33,0.00,2,,138
2014-1-6,77,65,52,72,62,23,100,65,29,30.26,30.06,29.99,10,7,0,23,8,33,0.00,6,Fog,298
2014-1-7,59,53,46,38,26,19,66,45,24,30.35,30.30,30.24,10,10,10,20,11,26,0.00,6,,17
2014-1-8,67,57,47,64,56,40,100,83,66,30.31,30.24,30.18,10,9,2,25,14,35,0.01,8,Rain,53
2014-1-9,79,72,64,72,68,64,100,90,79,30.23,30.18,30.12,10,9,1,16,9,20,T,6,Rain,64
2014-1-10,83,76,69,71,70,68,100,83,65,30.16,30.11,30.04,10,10,8,16,6,18,T,4,,89
2014-1-11,82,76,69,74,71,67,100,85,69,30.11,30.05,29.99,10,8,4,20,9,26,0.00,4,,177
2014-1-12,80,70,59,70,61,54,100,71,42,30.17,30.10,30.04,10,9,5,14,8,17,0.01,2,Rain,360
2014-1-13,82,69,56,70,63,54,100,82,63,30.14,30.09,30.02,10,10,8,14,7,18,0.00,3,,112
2014-1-14,79,74,68,73,68,65,100,87,73,30.04,29.99,29.95,10,10,7,18,7,26,T,4,,223
2014-1-15,69,64,59,65,55,48,93,77,60,30.08,30.01,29.97,10,10,10,14,5,20,T,4,,343
2014-1-16,63,54,45,59,43,32,87,64,41,30.17,30.09,29.99,10,9,2,17,10,26,0.05,3,Rain,349
2014-1-17,64,52,39,49,38,26,89,57,25,30.23,30.17,30.13,10,10,10,10,4,17,0.00,0,,13
2014-1-18,65,56,47,51,43,35,100,70,40,30.26,30.20,30.15,10,10,10,15,6,21,0.00,0,,341
2014-1-19,67,53,38,58,47,35,92,75,58,30.28,30.21,30.16,10,10,10,12,4,16,0.00,2,,206
2014-1-20,73,65,56,63,58,55,100,79,57,30.19,30.12,30.06,10,10,10,9,3,16,0.00,2,,188
2014-1-21,70,67,64,66,64,62,100,89,78,30.05,29.98,29.91,10,10,2,16,8,22,0.04,6,Rain,230
2014-1-22,66,57,48,56,45,42,87,70,53,30.19,30.10,29.95,10,10,9,21,9,28,0.00,2,,331
2014-1-23,71,55,38,48,40,32,92,61,29,30.30,30.24,30.18,10,10,10,14,6,17,0.00,0,,33
2014-1-24,69,59,49,48,44,37,86,64,42,30.39,30.29,30.23,10,10,10,22,12,28,0.00,1,,44
2014-1-25,72,60,48,61,54,45,100,81,61,30.23,30.14,30.07,10,10,4,12,5,16,0.00,3,,12
2014-1-26,73,63,53,60,56,47,100,71,41,30.11,30.04,30.00,10,8,2,9,2,12,0.00,4,,158
2014-1-27,79,68,57,68,64,58,100,84,67,30.05,30.01,29.96,10,7,0,13,4,17,0.00,1,Fog,204
2014-1-28,80,71,61,68,65,61,100,81,62,30.08,30.04,29.99,10,5,0,15,3,17,0.00,1,Fog,182
2014-1-29,71,63,54,68,61,51,100,92,84,30.12,30.03,29.99,10,7,0,20,7,28,0.02,6,Fog-Rain,30
2014-1-30,61,58,55,61,57,52,100,93,86,30.12,30.07,30.04,10,6,2,18,10,25,1.53,8,Rain,41
2014-1-31,81,70,59,72,64,57,100,87,74,30.09,30.04,29.99,10,6,0,14,7,18,0.30,6,Fog-Rain,67